Weather History for KSZL - December, 2012

Change the Weather History Date:

Tuesday, December 25, 2012

  Actual Average Record
Temperature  
Mean Temperature 21 °F -  
Max Temperature 25 °F 37 °F 54 °F (2014)
Min Temperature 16 °F 20 °F 3 °F (2000)
Degree Days  
Heating Degree Days 44    
Moisture  
Dew Point 19 °F    
Average Humidity 89    
Maximum Humidity 100    
Minimum Humidity 75    
Precipitation  
Precipitation 0.00 in - - ()
Sea Level Pressure  
Sea Level Pressure 30.23 in    
Wind  
Wind Speed 13 mph (NNE)    
Max Wind Speed 26 mph    
Max Gust Speed 30 mph    
Visibility 10 miles    
Events      
Averages and records for this station are not official NWS values.
T = Trace of Precipitation, MM = Missing Value Source: NWS Daily Summary

Daily Weather History Graph

Daily Weather History Graph

Search for Another Location

Airport or City:

Trip Planner

Search our weather history database for the weather conditions in past years. The results will help you decide how hot, cold, wet, or windy it might be!

Date:

Astronomy

Dec. 25, 2012 Rise Set
Actual Time 7:30 AM CST 4:58 PM CST
Civil Twilight 7:00 AM CST 5:28 PM CST
Nautical Twilight 6:27 AM CST 6:01 PM CST
Astronomical Twilight 5:54 AM CST 6:34 PM CST
Moon 3:06 PM CST (12/25) 5:04 AM CST (12/25)
Length of Visible Light 10h 27m
Length of Day
9h 27m
Waxing Gibbous, 94% of the Moon is Illuminated
Dec 25
Waxing Gibbous
Dec 28
Full
Jan 4
Last Quarter
Jan 11
New
Jan 18
First Quarter

Hourly Weather History & Observations

Time (CST) Temp. Windchill Dew Point Humidity Pressure Visibility Wind Dir Wind Speed Gust Speed Precip Events Conditions
12:55 AM 18.1 °F 7.9 °F 15.4 °F 89% 30.19 in 10.0 mi NNE 8.1 mph - N/A   Clear
1:20 AM 17.6 °F 6.4 °F 15.8 °F 93% 30.18 in 10.0 mi NE 9.2 mph - N/A   Mostly Cloudy
1:55 AM 18.7 °F 7.0 °F 16.2 °F 90% 30.19 in 10.0 mi NNE 10.4 mph - N/A   Overcast
2:20 AM 19.4 °F 7.2 °F 15.8 °F 86% 30.19 in 10.0 mi NNE 11.5 mph - N/A   Overcast
2:55 AM 19.4 °F 7.9 °F 17.4 °F 92% 30.19 in 10.0 mi NE 10.4 mph - N/A   Overcast
3:55 AM 20.7 °F 8.8 °F 19.2 °F 94% 30.19 in 10.0 mi NE 11.5 mph - N/A   Overcast
4:55 AM 21.4 °F 9.1 °F 20.1 °F 95% 30.21 in 10.0 mi NE 12.7 mph - N/A   Overcast
5:39 AM 21.2 °F 8.9 °F 21.2 °F 100% 30.20 in 10.0 mi NE 12.7 mph - N/A   Overcast
5:55 AM 21.7 °F 9.0 °F 20.7 °F 96% 30.20 in 10.0 mi NE 13.8 mph - N/A   Overcast
6:55 AM 21.9 °F 9.8 °F 21.4 °F 98% 30.20 in 10.0 mi NE 12.7 mph - N/A   Overcast
7:55 AM 22.3 °F 10.8 °F 21.9 °F 99% 30.26 in 10.0 mi NNE 11.5 mph - N/A   Overcast
8:55 AM 22.8 °F 10.4 °F 22.6 °F 99% 30.30 in 10.0 mi NE 13.8 mph - N/A   Overcast
9:07 AM 23.0 °F 11.1 °F 23.0 °F 100% 30.30 in 10.0 mi NE 12.7 mph - N/A   Overcast
9:24 AM 23.0 °F 11.1 °F 23.0 °F 100% 30.31 in 10.0 mi NE 12.7 mph - N/A   Overcast
9:55 AM 23.2 °F 11.4 °F 23.0 °F 99% 30.31 in 9.0 mi NE 12.7 mph - 0.00 in   Overcast
10:18 AM 23.0 °F 9.2 °F 23.0 °F 100% 30.30 in 8.0 mi NNE 17.3 mph - N/A   Light Freezing Rain
10:55 AM 23.2 °F 9.0 °F 22.8 °F 99% 30.23 in 10.0 mi NE 18.4 mph 26.5 mph 0.00 in   Light Freezing Rain
11:17 AM 23.0 °F 8.7 °F 23.0 °F 100% 30.20 in 10.0 mi NNE 18.4 mph 28.8 mph N/A   Light Freezing Rain
11:28 AM 24.8 °F 10.7 °F 23.0 °F 93% 30.21 in 10.0 mi NNE 19.6 mph - N/A   Overcast
11:55 AM 24.1 °F 10.6 °F 21.2 °F 89% 30.21 in 10.0 mi NNE 17.3 mph 26.5 mph 0.00 in   Overcast
12:55 PM 24.4 °F 11.5 °F 21.6 °F 89% 30.20 in 10.0 mi North 16.1 mph - N/A   Overcast
1:55 PM 23.9 °F 9.5 °F 21.2 °F 89% 30.19 in 10.0 mi North 19.6 mph 27.6 mph N/A   Overcast
2:55 PM 24.6 °F 10.5 °F 20.5 °F 84% 30.19 in 10.0 mi NNE 19.6 mph 24.2 mph N/A   Overcast
3:33 PM 24.8 °F 11.5 °F 19.4 °F 80% 30.22 in 10.0 mi NNE 17.3 mph 24.2 mph N/A   Overcast
3:55 PM 25.2 °F 12.0 °F 19.6 °F 79% 30.23 in 10.0 mi NNE 17.3 mph - N/A   Overcast
4:55 PM 24.4 °F 11.0 °F 17.6 °F 75% 30.25 in 10.0 mi North 17.3 mph - N/A   Overcast
5:55 PM 22.8 °F 8.9 °F 16.3 °F 76% 30.25 in 10.0 mi North 17.3 mph - N/A   Overcast
6:55 PM 22.1 °F 6.4 °F 15.6 °F 76% 30.24 in 10.0 mi North 21.9 mph - N/A   Overcast
7:55 PM 21.0 °F 3.6 °F 14.5 °F 76% 30.23 in 10.0 mi North 26.5 mph 29.9 mph N/A   Overcast
8:55 PM 19.8 °F 4.1 °F 13.5 °F 77% 30.22 in 10.0 mi North 19.6 mph 27.6 mph N/A   Overcast
9:55 PM 18.9 °F 4.8 °F 13.6 °F 80% 30.22 in 10.0 mi North 15.0 mph - N/A   Overcast
10:11 PM 19.4 °F 4.5 °F 14.0 °F 80% 30.23 in 10.0 mi North 17.3 mph - N/A   Overcast
10:55 PM 17.8 °F 3.4 °F 13.3 °F 83% 30.22 in 10.0 mi North 15.0 mph - N/A   Overcast
11:55 PM 16.5 °F 2.4 °F 12.0 °F 82% 30.22 in 10.0 mi North 13.8 mph 24.2 mph N/A   Overcast